www.pogodaiklimat.ru

Погода и климат >> Архив погоды >> Молдова >> Бельцы


ПОГОДА в Бельцах

  • Прогноз погоды в Бельцах
  • Монитор погоды в Бельцах

АРХИВ ПОГОДЫ в Бельцах

Время (UTC), дата Ветер
(напр.,м/с)
 
Видим.   Явления Облачность Т
(С)
Тd
(С)
f
(%)
Тe
(С)
Тes
(С)
Комфортность P
(гПа)
Po
(гПа)
Тmin
(С)
Tmax
(С)
R
(мм)
R24
(мм)
S
(см)
00 14.06 СЗ 1 10 км 4/0
[Ac trans]
+17.7 +16.0 90 +19 +19 1019.7 1001.1
03 14.06 штиль 0 10 км 8/8 600 м
[Cb cap]
+18.6 +16.9 90 +19 +20 1019.0 1000.5
06 14.06 штиль 0 10 км 8/0
[Ac trans Ci fib]
+24.8 +18.5 68 +29 +37 душно 1019.6 1001.4 +16.6
09 14.06 СВ 1 10 км 4/0
[Ci fib]
+29.2 +13.8 39 +31 +50 жарко 1019.6 1001.7
12 14.06 В 2 10 км 5/0
[Ci fib]
+30.8 +14.0 36 +32 +47 жарко 1019.0 1001.2
15 14.06 В 1 10 км ясно +30.7 +13.9 36 +32 +38 жарко 1017.6 999.8
18 14.06 штиль 0 10 км 8/0
[Ac trans Ci fib]
+24.7 +18.2 67 +29 +29 душно 1018.4 1000.3 +31.4
21 14.06 штиль 0 10 км 8/8 600 м
[Cb cap]
+22.7 +19.7 83 +29 +29 очень
душно
1019.4 1001.1
00 15.06 штиль 0 10 км 6/0
[Ci fib]
+20.6 +18.9 90 +24 +24 комфорт 1018.8 1000.4
03 15.06 штиль 0 10 км 4/0
[Ci fib]
+19.8 +18.1 90 +22 +23 комфорт 1018.8 1000.3
06 15.06 штиль 0 10 км ясно +26.3 +20.9 72 +33 +43 очень
душно
1017.7 999.7 +19.2
09 15.06 СЗ 1 10 км 3/3 600 м
[Cu hum]
+29.5 +16.7 46 +33 +47 душно 1017.3 999.4
12 15.06 С 2 10 км 4/4 1000 м
[Cu hum]
+31.2 +15.2 38 +34 +43 душно 1015.3 997.6
15 15.06 С 1 10 км 4/3 1000 м
[Cu hum Ci fib]
+30.8 +15.3 39 +33 +37 душно 1014.3 996.6
18 15.06 штиль 0 10 км 4/4 600 м
[Sc]
+25.7 +17.1 59 +30 +30 душно 1014.7 996.7 +31.8
21 15.06 штиль 0 10 км ясно +21.4 +18.8 85 +26 +26 душно 1015.7 997.4
00 16.06 штиль 0 4000 м дымка ясно +18.1 +17.5 96 +18 +18 1014.9 996.4
03 16.06 штиль 0 4000 м дымка ясно +18.1 +18.1 100 +18 +19 1015.1 996.6
06 16.06 С 1 10 км ясно +27.0 +20.4 67 +33 +42 очень
душно
1014.6 996.7 +17.7
09 16.06 В 1 10 км 6/6 600 м
[Cu hum]
+30.7 +16.7 43 +34 +42 очень
душно
1014.4 996.7
12 16.06 ЮВ 1 10 км 8/8 600 м
[Cu hum]
+31.2 +16.0 40 +34 +38 душно 1013.5 995.8
15 16.06 ЮВ 1 10 км 6/4 600 м
[Cb cap Ac trans]
+31.5 +15.1 37 +34 +36 душно 1012.6 994.9
18 16.06 штиль 0 10 км 8/0
[Ci fib]
+25.8 +20.4 72 +32 +32 очень
душно
1013.7 995.7 +32.4
21 16.06 штиль 0 10 км 6/0
[Ci fib]
+20.9 +19.2 90 +25 +25 комфорт 1014.7 996.4
00 17.06 штиль 0 4000 м дымка 8/0
[Ci fib]
+20.0 +19.5 97 +23 +23 комфорт 1015.2 996.8
03 17.06 штиль 0 4000 м дымка 4/0
[Ci fib]
+18.7 +18.4 98 +20 +20 1016.0 997.5
06 17.06 В 1 10 км 4/0
[Cs]
+25.9 +19.5 68 +31 +40 очень
душно
1015.9 997.9 +18.5
09 17.06 ЮВ 1 10 км 8/3 1000 м
[Cu hum Ac trans Ci fib]
+30.3 +17.1 45 +34 +43 очень
душно
1015.8 998.0
12 17.06 штиль 0 10 км гроза без осадков {ливн. осадки} 8/8 600 м
[Cb cap]
+26.5 +23.0 81 +35 +40 очень
душно
1015.4 997.5
15 17.06 З 3 10 км {гроза} 8/4 600 м
[Cb cap Cs]
+28.5 +20.8 63 +36 +38 очень
душно
1014.9 997.1
18 17.06 СЗ 3
{14}
1000 м сильн. гроза, ливневой дождь 10/10 300 м
[Cb cap]
+17.7 +17.7 100 +18 +18 1019.8 1001.2 +31.2 29
21 17.06 штиль 0 10 км слаб. ливневой дождь {гроза} 10/10 300 м
[Cb cap]
+19.3 +19.3 100 +21 +21 комфорт 1017.4 999.0
00 18.06 штиль 0 10 км {гроза, ливн. осадки} 8/4 600 м
[Cb cap Cs]
+18.6 +18.3 98 +20 +20 1018.3 999.8
03 18.06 СЗ 2 4000 м дымка 6/3 600 м
[Sc diur, vesp Cs]
+19.0 +18.8 99 +21 +21 комфорт 1017.9 999.4
06 18.06 С 1 10 км 8/3 600 м
[Sc Ac trans]
+23.8 +20.9 84 +30 +33 очень
душно
1018.3 1000.1 +17.1 56
09 18.06 СЗ 1 10 км 9/5 1000 м
[Cu hum Cs]
+26.9 +21.9 74 +35 +43 очень
душно
1018.2 1000.2
12 18.06 СЗ 2 10 км 8/8 1000 м
[Cu hum]
+28.3 +20.6 63 +35 +38 очень
душно
1016.8 998.9
15 18.06 С 1 10 км 9/5 600 м
[Cb cap Cs]
+28.4 +20.4 62 +35 +38 очень
душно
1015.7 997.8
18 18.06 З 2 10 км в посл. час гроза 9/4 600 м
[Cb cap Cs]
+21.6 +19.0 85 +26 +26 душно 1017.3 999.0 +29.4
21 18.06 СЗ 2 10 км зарница 8/3 600 м
[Cb cap Cs]
+20.2 +18.9 92 +24 +24 комфорт 1018.1 999.7
00 19.06 штиль 0 10 км 8/0
[Ci fib]
+18.6 +18.1 97 +20 +20 1017.6 999.1
03 19.06 штиль 0 10 км 8/3 600 м
[Cb cap Cs]
+18.5 +18.5 100 +19 +20 1017.6 999.1
06 19.06 З 1 10 км 8/3 600 м
[Sc diur, vesp Ci fib]
+22.8 +19.6 82 +29 +34 очень
душно
1017.3 999.1 +18.1
09 19.06 штиль 0 10 км 8/5 600 м
[Cu hum Ci fib]
+26.7 +18.3 60 +31 +42 душно 1016.5 998.5
12 19.06 В 1 10 км 8/8 600 м
[Cb cap]
+28.6 +17.5 51 +33 +36 очень
душно
1015.1 997.2
15 19.06 СВ 1 10 км 9/6 600 м
[Cb cap Cs]
+28.6 +17.8 52 +33 +35 очень
душно
1013.6 995.8
18 19.06 штиль 0 10 км 6/3 600 м
[Sc Ci fib]
+25.4 +18.6 66 +30 +30 душно 1013.9 995.9 +29.8
21 19.06 штиль 0 10 км 6/0
[Ac trans Ci fib]
+22.5 +19.7 84 +29 +29 очень
душно
1015.1 996.9
00 20.06 штиль 0 10 км 4/0
[Ac trans Ci fib]
+19.6 +18.9 96 +22 +22 комфорт 1014.9 996.5
03 20.06 СВ 1 10 км ясно +19.6 +18.6 94 +23 +24 комфорт 1014.4 996.0
06 20.06 В 1 10 км ясно +25.4 +19.1 68 +30 +39 душно 1014.5 996.5 +18.3
09 20.06 ЮВ 1 10 км 4/0
[Ci fib]
+29.0 +16.9 48 +33 +52 опасность
солнечного
удара
1014.0 996.2
12 20.06 СВ 2 10 км 8/5 600 м
[Cu hum Ci fib]
+30.1 +17.2 46 +34 +41 очень
душно
1012.9 995.2
15 20.06 СВ 2 10 км 8/3 600 м
[Cu hum Ci fib]
+29.9 +16.3 44 +33 +36 душно 1012.3 994.6
18 20.06 штиль 0 10 км 9/3 630 м
[Sc diur, vesp Ci fib]
+24.9 +20.0 74 +30 +30 душно 1013.3 995.3 +31.1

 

Местоположение метеостанции Бельцы (Молдова): широта 47.78 долгота 27.95 высота над уровнем моря 102 м.

В архиве по умолчанию представлена погода в Бельцах за последнюю неделю. Архивные данные за месяц целиком и за предыдущие месяцы, начиная с января 2011 года, Вы можете получить, выбрав интересующий диапазон дат из раскрывающегося списка и нажав кнопку "Ввод!".


*Определитесь, кто Вы:
робот инопланетянин человек

Внимание! Время в таблицах - всемирное. Для получения местного времени необходимо прибавить поправку, которая равна 2 ч.

Смотрите также архив погоды в соседних городах и на ближайших метеорологических станциях:

Погода в Фалештах (Молдова) (29 км)
Погода в Корнестах (Молдова) (51 км)
Погода в Сороках (Молдова) (53 км)
Погода в Штефанешты (Румыния) (55 км)
Погода в Бравичах (Молдова) (58 км)
Погода в Каменке (Молдова) (62 км)
Погода в Яссы (Румыния) (72 км)
Погода в Могилев-Подольском (Винницкая область, Украина) (76 км)
Погода в Рыбнице (Молдова) (80 км)
Погода в Кодрах (Молдова) (83 км)

Пояснения к столбцам:

Ветер - указаны скорость ветра в м/с - средняя за 10 мин, порывы в срок и между сроками (в фигурных скобках) и направление, откуда дует ветер: С - северный, СВ - северо-восточный, В - восточный, ЮВ - юго-восточный, Ю - южный, ЮЗ - юго-западный, З - западный, СЗ - северо-западный.
Видимость - горизонтальная дальность видимости в метрах или километрах. При видимости от 1 до 10 км при отсутствии осадков обычно наблюдается дымка, при ухудшении видимости до 1 км и менее - туман. В сухую погоду видимость может ухудшаться дымом, пылью или мглою.
Явления - указаны атмосферные явления, наблюдавшиеся в срок или в последний час перед сроком; фигурными скобками обозначены явления, наблюдавшиеся между сроками (за 1-3 часа до срока); квадратными скобками обозначены град или гололедные отложения с указанием их диаметра в мм.
Облачность - указаны через наклонную черту общая и нижняя облачность в баллах и высота нижней границы облаков в метрах; квадратными скобками обозначены формы облаков: Ci - перистые, Cs - перисто-слоистые, Cc - перисто-кучевые, Ac - высококучевые, As - высокослоистые, Sc - слоисто-кучевые, Ns - слоисто-дождевые, Cu - кучевые, Cb - кучево-дождевые. Подробнее классификацию облаков см. в Атласе облаков (PDF).
T - Температура воздуха - температура, измеренная на высоте 2 м над землей.
Td - Температура точки росы - температура, при понижении до которой содержащийся в воздухе водяной пар достигнет насыщения.
f - Относительная влажность воздуха - влажноcть воздуха, измеренная на высоте 2 м над землей.
Te - Эффективная температура - температура, которую ощущает одетый по сезону человек в тени. Характеристика душности погоды. При расчете учитывается влияние влажности воздуха и скорости ветра на теплоощущения человека.
Tes - Эффективная температура на солнце - температура, которую ощущает человек, с поправкой на солнечный нагрев. Характеристика знойности погоды. Зависит от высоты солнца над горизонтом, облачности и скорости ветра. Ночью, в пасмурную погоду, а также при ветре 12 м/с и более поправка равна нулю.
P - Атмосферное давление - приведенное к уровню моря атмосферное давление.
Po - Атмосферное давление - измеренное на уровне метеостанции атмосферное давление.
Tmin - Минимальная температура - минимум температуры воздуха на высоте 2 м над землей.
Tmax - Максимальная температура - максимум температуры воздуха на высоте 2 м над землей.
R - Количество осадков - Количество выпавших осадков за период времени, мм. При наведении курсора мыши на число - период времени, за который выпало указанное количество осадков.
R24 - Количество осадков - Количество выпавших осадков за 24 часа, мм.
S - Снежный покров - Высота снежного покрова, см. При наведении курсора мыши на число - состояние снежного покрова и степень покрытия местности в баллах.